TimeCST,TemperatureF,Dew PointF,Humidity,Sea Level PressureIn,VisibilityMPH,Wind Direction,Wind SpeedMPH,Gust SpeedMPH,PrecipitationIn,Events,Conditions,WindDirDegrees,DateUTC
12:15 AM,3.2,-6.7,63,30.66,10.0,NNE,5.8,-,N/A,,Clear,30,2013-12-07 06:15:00
12:35 AM,3.2,-6.3,65,30.67,10.0,NNE,5.8,-,N/A,,Clear,30,2013-12-07 06:35:00
12:55 AM,3.0,-6.5,65,30.67,10.0,North,3.5,-,N/A,,Clear,10,2013-12-07 06:55:00
1:15 AM,2.3,-6.7,66,30.67,10.0,North,5.8,-,N/A,,Clear,10,2013-12-07 07:15:00
1:35 AM,1.9,-6.7,67,30.67,10.0,North,5.8,-,N/A,,Clear,360,2013-12-07 07:35:00
1:55 AM,1.4,-6.9,68,30.67,10.0,North,3.5,-,N/A,,Clear,10,2013-12-07 07:55:00
2:15 AM,1.2,-7.6,67,30.68,10.0,NNE,3.5,-,N/A,,Clear,20,2013-12-07 08:15:00
2:35 AM,0.5,-7.6,69,30.67,10.0,Calm,Calm,-,N/A,,Clear,0,2013-12-07 08:35:00
2:55 AM,0.3,-7.6,69,30.67,10.0,North,3.5,-,N/A,,Clear,10,2013-12-07 08:55:00
3:15 AM,0.1,-7.8,69,30.68,10.0,NNE,3.5,-,N/A,,Clear,30,2013-12-07 09:15:00
3:35 AM,0.3,-8.0,68,30.67,10.0,North,5.8,-,N/A,,Clear,360,2013-12-07 09:35:00
3:55 AM,0.1,-8.1,68,30.68,10.0,NNW,4.6,-,N/A,,Clear,340,2013-12-07 09:55:00
4:15 AM,-0.4,-8.5,69,30.68,10.0,Calm,Calm,-,N/A,,Clear,0,2013-12-07 10:15:00
4:35 AM,-0.4,-8.5,69,30.68,10.0,Calm,Calm,-,N/A,,Clear,0,2013-12-07 10:35:00
4:55 AM,-0.4,-8.5,69,30.68,10.0,Calm,Calm,-,N/A,,Clear,0,2013-12-07 10:55:00
5:15 AM,-0.8,-8.7,69,30.67,10.0,Calm,Calm,-,N/A,,Clear,0,2013-12-07 11:15:00
5:35 AM,-1.3,-8.7,71,30.68,10.0,Calm,Calm,-,N/A,,Clear,0,2013-12-07 11:35:00
5:55 AM,-0.9,-8.5,70,30.67,10.0,Calm,Calm,-,N/A,,Clear,0,2013-12-07 11:55:00
6:15 AM,-1.7,-8.7,72,30.67,10.0,NE,3.5,-,N/A,,Clear,40,2013-12-07 12:15:00
6:35 AM,-1.7,-8.7,72,30.68,10.0,Calm,Calm,-,N/A,,Clear,0,2013-12-07 12:35:00
6:55 AM,-1.5,-8.5,72,30.68,10.0,Calm,Calm,-,N/A,,Clear,0,2013-12-07 12:55:00
7:15 AM,-1.7,-8.5,73,30.68,10.0,Calm,Calm,-,N/A,,Clear,0,2013-12-07 13:15:00
7:35 AM,-1.7,-8.5,73,30.68,10.0,Calm,Calm,-,N/A,,Clear,0,2013-12-07 13:35:00
7:55 AM,-1.3,-8.1,73,30.68,10.0,Calm,Calm,-,N/A,,Clear,0,2013-12-07 13:55:00
8:15 AM,0.5,-6.7,72,30.68,10.0,East,3.5,-,N/A,,Clear,80,2013-12-07 14:15:00
8:35 AM,1.6,-6.5,69,30.68,10.0,East,6.9,-,N/A,,Clear,90,2013-12-07 14:35:00
8:55 AM,3.2,-5.6,67,30.68,10.0,East,6.9,-,N/A,,Clear,100,2013-12-07 14:55:00
9:15 AM,3.7,-5.8,65,30.69,10.0,East,6.9,-,N/A,,Clear,100,2013-12-07 15:15:00
9:35 AM,4.6,-5.1,64,30.69,10.0,ESE,6.9,-,N/A,,Clear,110,2013-12-07 15:35:00
9:55 AM,5.4,-4.4,64,30.69,10.0,East,6.9,-,N/A,,Clear,80,2013-12-07 15:55:00
10:15 AM,6.1,-4.7,61,30.68,10.0,East,5.8,-,N/A,,Clear,80,2013-12-07 16:15:00
10:35 AM,7.0,-4.2,60,30.68,10.0,East,5.8,-,N/A,,Clear,80,2013-12-07 16:35:00
10:55 AM,7.5,-4.7,57,30.67,10.0,East,4.6,-,N/A,,Clear,80,2013-12-07 16:55:00
11:15 AM,8.6,-4.4,56,30.66,10.0,East,6.9,-,N/A,,Clear,80,2013-12-07 17:15:00
11:35 AM,9.5,-4.4,54,30.65,10.0,ENE,4.6,-,N/A,,Clear,70,2013-12-07 17:35:00
11:55 AM,11.7,-4.4,49,30.62,10.0,ESE,6.9,-,N/A,,Clear,110,2013-12-07 17:55:00
12:15 PM,12.4,-4.9,46,30.60,10.0,East,6.9,-,N/A,,Clear,90,2013-12-07 18:15:00
12:35 PM,13.6,-5.3,43,30.58,10.0,East,5.8,-,N/A,,Clear,90,2013-12-07 18:35:00
12:55 PM,14.9,-6.2,39,30.58,10.0,East,4.6,-,N/A,,Clear,90,2013-12-07 18:55:00
1:15 PM,15.1,-6.3,38,30.56,10.0,East,5.8,-,N/A,,Clear,100,2013-12-07 19:15:00
1:35 PM,15.8,-6.3,37,30.54,10.0,East,4.6,-,N/A,,Clear,80,2013-12-07 19:35:00
1:55 PM,16.9,-7.4,34,30.52,10.0,East,10.4,-,N/A,,Clear,80,2013-12-07 19:55:00
2:15 PM,17.2,-7.8,33,30.50,10.0,ESE,8.1,-,N/A,,Clear,120,2013-12-07 20:15:00
2:35 PM,18.0,-7.8,32,30.48,10.0,East,8.1,-,N/A,,Clear,100,2013-12-07 20:35:00
2:55 PM,17.6,-7.8,32,30.47,10.0,East,8.1,-,N/A,,Clear,100,2013-12-07 20:55:00
3:15 PM,17.8,-7.8,32,30.45,10.0,East,11.5,-,N/A,,Clear,90,2013-12-07 21:15:00
3:35 PM,17.4,-7.2,33,30.44,10.0,East,8.1,-,N/A,,Clear,100,2013-12-07 21:35:00
3:55 PM,17.6,-7.2,33,30.44,10.0,ESE,8.1,-,N/A,,Clear,110,2013-12-07 21:55:00
4:15 PM,17.1,-6.7,35,30.42,10.0,ESE,9.2,-,N/A,,Clear,110,2013-12-07 22:15:00
4:35 PM,17.6,-6.9,34,30.42,10.0,ESE,11.5,16.1,N/A,,Mostly Cloudy,120,2013-12-07 22:35:00
4:55 PM,17.4,-6.7,34,30.42,10.0,ESE,9.2,-,N/A,,Overcast,110,2013-12-07 22:55:00
5:15 PM,17.2,-6.3,35,30.42,10.0,ESE,9.2,-,N/A,,Overcast,110,2013-12-07 23:15:00
5:35 PM,17.2,-6.2,35,30.42,10.0,ESE,5.8,-,N/A,,Overcast,110,2013-12-07 23:35:00
5:55 PM,17.4,-6.3,35,30.42,10.0,ESE,10.4,-,N/A,,Overcast,110,2013-12-07 23:55:00
6:15 PM,17.2,-2.9,41,30.42,7.0,ESE,10.4,-,N/A,Snow,Light Snow,110,2013-12-08 00:15:00
6:35 PM,16.3,2.3,54,30.42,4.0,ESE,8.1,-,N/A,Snow,Light Snow,120,2013-12-08 00:35:00
6:55 PM,16.0,3.0,57,30.41,7.0,ESE,5.8,-,N/A,Snow,Light Snow,110,2013-12-08 00:55:00
7:15 PM,16.3,2.1,54,30.42,7.0,ESE,8.1,-,N/A,Snow,Light Snow,120,2013-12-08 01:15:00
7:35 PM,16.2,0.1,49,30.41,10.0,East,9.2,-,N/A,Snow,Light Snow,100,2013-12-08 01:35:00
7:55 PM,15.8,1.8,54,30.41,7.0,ESE,8.1,-,N/A,Snow,Light Snow,110,2013-12-08 01:55:00
8:15 PM,15.6,1.9,55,30.40,5.0,East,9.2,-,N/A,Snow,Light Snow,100,2013-12-08 02:15:00
8:35 PM,15.4,1.0,53,30.39,7.0,ESE,10.4,-,N/A,Snow,Light Snow,110,2013-12-08 02:35:00
8:55 PM,15.3,2.5,57,30.39,5.0,East,9.2,-,N/A,Snow,Light Snow,90,2013-12-08 02:55:00
9:15 PM,15.3,2.8,58,30.37,7.0,East,11.5,-,N/A,Snow,Light Snow,90,2013-12-08 03:15:00
9:35 PM,15.3,2.1,56,30.36,10.0,East,11.5,16.1,N/A,Snow,Light Snow,100,2013-12-08 03:35:00
9:55 PM,15.3,3.0,58,30.35,5.0,East,9.2,12.7,N/A,Snow,Light Snow,100,2013-12-08 03:55:00
10:15 PM,15.1,3.9,61,30.35,5.0,East,9.2,-,N/A,Snow,Light Snow,90,2013-12-08 04:15:00
10:35 PM,14.9,5.7,67,30.34,2.5,East,10.4,-,N/A,Snow,Light Snow,100,2013-12-08 04:35:00
10:55 PM,14.7,6.8,71,30.34,2.0,East,11.5,-,N/A,Snow,Light Snow,100,2013-12-08 04:55:00
11:15 PM,14.0,8.2,78,30.32,1.5,East,10.4,-,N/A,Snow,Light Snow,100,2013-12-08 05:15:00
11:35 PM,14.0,8.6,79,30.31,1.2,East,8.1,-,N/A,Snow,Snow,100,2013-12-08 05:35:00
11:55 PM,14.0,9.1,81,30.31,1.5,East,6.9,-,N/A,Snow,Light Snow,100,2013-12-08 05:55:00